EHI
0 0 0 0 0 0 0 0 0 0 0 0 0 0 0 0 0 0 0 0 0 0 0 0 0 0 0 0 0 0 0 0 0 0 0 0 0 0 0 0 0 0 0
0 0 0 0 0 0 0 0 0 0 0 0 0 0 0 0 0 0 0 0 0 0 0 0 0 0 0 0 0 0 0 0 0 0 0 0 0 0 0 0 0 0 0
0 0 0 0 0 0 0 0 0 0 0 0 0 0 0 0 0 0 0 0 0 0 0 0 0 0 0 0 0 0 0 0 0 0 0 0 0 0 0 0 0 0 0
0 0 0 0 0 0 0 0 0 0 0 0 0 0 0 0 0 0 0 0 0 0 0 0 0 0 0 0 0 0 0 0 0 0 0 0 0 0 0 0 0 0 0
0 0 0 0 0 0 0 0 0 0 0 0 0 0 0 0 0 0 0 0 0 0 0 0 0 0 0 0 0 0 0 0 0 0 0 0 0 0 0 0 0 0 0
0 0 0 0 0 0 0 0 0 0 0 0 0 0 0 0 0 0 0 0 0 0 0 0 0 0 0 0 0 0 0 0 0 0 0 0 0 0 0 0 0 0 0
0 0 0 0 0 0 0 0 0 0 0 0 0 0 0 0 0 0 0 0 0 0 0 0 0 0 0 0 0 0 0 0 0 0 0 0 0 0 0 0 0 0 0
0 0 0 0 0 0 0 0 0 0 0 0 0 0 0 0 0 0 0 0 0 0 0 0 0 0 0 0 0 0 0 0 0 0 0 0 0 0 0 0 0 0 0
0 0 0 0 0 0 0 0 0 0 0 0 0 0 0 0 0 0 0 0 0 0 0 0 0 0 0 0 0 0 0 0 0 0 0 0 0 0 0 0 0 0 0
0 0 0 0 0 0 0 0 0 0 0 0 0 0 0 0 0 0 0 0 0 0 0 0 0 0 0 0 0 0 0 0 0 0 0 0 0 0 0 0 0 0 0
0 0 0 0 0 0 0 0 0 0 0 0 0 0 0 0 0 0 0 0 0 0 0 0 0 0 0 0 0 0 0 0 0 0 0 0 0 0 0 0 0 0 0
0 0 0 0 0 0 0 0 0 0 0 0 0 0 0 0 0 0 0 0 0 0 0 0 0 0 0 0 0 0 0 0 0 0 0 0 0 0 0 0 0 0 0
0 0 0 0 0 0 0 0 0 0 0 0 0 0 0 0 0 0 0 0 0 0 0 0 0 0 0 0 0 0 0 0 0 0 0 0 0 0 0 0 0 0 0
0 0 0 0 0 0 0 0 0 0 0 0 0 0 0 0 0 0 0 0 0 0 0 0 0 0 0 0 0 0 0 0 0 0 0 0 0 0 0 0 0 0 0
0 0 0 0 0 0 0 0 0 0 0 0 0 0 0 0 0 0 0 0 0 0 0 0 0 0 0 0 0 0 0 0 0 0 0 0 0 0 0 0 0 0 0
0 0 0 0 0 0 0 0 0 0 0 0 0 0 0 0 0 0 0 0 0 0 0 0 0 0 0 0 0 0 0 0 0 0 0 0 0 0 0 0 0 0 0
0 0 0 0 0 0 0 0 0 0 0 0 0 0 0 0 0 0 0 0 0 0 0 0 0 0 0 0 0 0 0 0 0 0 0 0 0 0 0 0 0 0 0
0 0 0 0 0 0 0 0 0 0 0 0 0 0 0 0 0 0 0 0 0 0 0 0 0 0 0 0 0 0 0 0 0 0 0 0 0 0 0 0 0 0 0
0 0 0 0 0 0 0 0 0 0 0 0 0 0 0 0 0 0 0 0 0 0 0 0 0 0 0 0 0 0 0 0 0 0 0 0 0 0 0 0 0 0 0
0 0 0 0 0 0 0 0 0 0 0 0 0 0 0 0 0 0 0 0 0 0 0 0 0 0 0 0 0 0 0 0 0 0 0 0 0 0 0 0 0 0 0
0 0 0 0 0 0 0 0 0 0 0 0 0 0 0 0 0 0 0 0 0 0 0 0 0 0 0 0 0 0 0 0 0 0 0 0 0 0 0 0 0 0 0
0 0 0 0 0 0 0 0 0 0 0 0 0 0 0 0 0 0 0 0 0 0 0 0 0 0 0 0 0 0 0 0 0 0 0 0 0 0 0 0 0 0 0
0 0 0 0 0 0 0 0 0 0 0 0 0 0 0 0 0 0 0 0 0 0 0 0 0 0 0 0 0 0 0 0 0 0 0 0 0 0 0 0 0 0 0
0 0 0 0 0 0 0 0 0 0 0 0 0 0 0 0 0 0 0 0 0 0 0 0 0 0 0 0 0 0 0 0 0 0 0 0 0 0 0 0 0 0 0
0 0 0 0 0 0 0 0 0 0 0 0 0 0 0 0 0 0 0 0 0 0 0 0 0 0 0 0 0 0 0 0 0 0 0 0 0 0 0 0 0 0 0
0 0 0 0 0 0 0 0 0 0 0 0 0 0 0 0 0 0 0 0 0 0 0 0 0 0 0 0 0 0 0 0 0 0 0 0 0 0 0 0 0 0 0
Wind_Speed
8 9 8 6 3 2 3 5 6 6 6 5 5 5 6 5 4 6 8 9 9 10 11 9 8 8 9 11 10 7 7 7 3 2 5 6 10 13 12 11 11 13 13
11 12 10 8 5 2 0 2 4 6 6 6 4 3 3 3 4 5 7 10 11 11 11 11 9 9 9 9 9 8 5 5 6 5 2 6 6 6 11 10 10 11 8
8 9 9 8 6 5 2 1 3 5 5 5 3 2 2 1 1 5 6 9 11 11 12 13 12 10 10 11 12 12 11 9 7 8 7 5 7 4 4 6 8 9 8
6 7 8 8 7 6 3 2 0 2 3 5 5 6 5 6 7 5 5 6 9 11 12 12 12 11 11 12 13 12 11 10 9 6 9 10 5 4 6 4 4 6 8
5 6 6 6 6 6 5 4 3 1 2 4 5 6 7 7 5 3 5 6 7 10 12 12 12 12 11 13 13 11 12 11 12 9 6 9 8 8 7 11 6 4 6
4 5 5 5 6 6 6 5 4 3 1 2 4 5 8 8 7 7 6 6 5 6 10 11 11 12 11 13 14 13 13 13 13 12 9 8 7 8 11 15 11 10 7
2 4 6 6 7 8 7 6 5 4 2 0 3 5 7 7 8 8 7 6 5 5 8 9 11 11 12 13 12 12 13 15 14 15 13 12 13 8 8 11 11 9 5
1 2 3 4 5 6 6 6 5 4 3 2 3 3 4 4 5 6 6 6 6 7 7 8 10 12 12 13 12 11 13 13 15 16 16 13 12 11 12 10 9 10 8
1 2 3 4 4 4 4 4 4 4 4 4 3 3 3 4 5 6 5 5 6 6 7 7 9 10 11 12 12 11 13 13 14 15 16 14 12 11 12 11 11 11 11
1 2 3 3 3 3 3 4 4 4 4 5 4 3 4 4 5 5 6 7 7 7 7 8 8 9 10 10 11 11 12 13 14 12 14 15 12 11 11 12 11 12 13
1 1 2 2 3 3 4 4 5 5 5 5 5 5 5 5 5 5 7 7 7 7 8 8 8 9 9 9 10 11 11 14 14 13 15 17 14 13 11 11 12 13 13
1 1 2 3 3 4 5 5 5 5 5 5 5 5 6 6 6 7 8 7 8 8 8 8 9 10 10 9 10 12 12 13 14 14 14 16 13 16 13 12 14 14 14
2 2 3 3 4 5 5 5 5 5 5 5 5 6 7 7 8 8 8 8 8 9 8 8 9 10 10 10 11 12 12 13 14 13 14 15 14 16 13 14 14 13 13
2 2 3 4 5 5 5 5 6 5 5 6 6 7 8 8 9 9 9 9 9 9 10 10 10 10 11 11 11 11 12 13 13 13 13 14 14 16 15 14 15 13 14
3 3 4 5 5 6 6 6 6 6 5 6 7 8 9 9 9 9 9 9 9 10 10 11 11 11 9 10 11 11 12 13 13 13 13 14 18 22 18 14 12 12 13
3 5 5 6 6 6 6 6 6 6 6 7 8 9 9 9 9 10 10 10 10 10 10 11 12 12 10 18 24 19 12 11 12 13 12 14 18 22 28 30 27 22 16
4 5 6 6 6 6 5 6 6 6 7 8 9 10 10 10 11 11 11 11 11 10 11 11 11 13 15 24 26 26 17 12 11 11 11 11 12 18 14 20 27 26 30
4 5 6 6 6 5 5 6 6 7 8 9 10 10 10 11 11 11 11 12 10 11 11 12 12 13 16 25 26 26 17 12 11 11 11 12 12 12 14 13 14 15 16
4 5 5 5 5 6 6 7 8 8 8 10 10 10 10 12 12 13 13 12 12 12 12 12 13 14 16 23 26 25 11 10 11 10 11 12 12 19 24 16 14 14 13
4 4 5 5 6 7 6 7 9 9 10 11 11 11 10 12 13 14 14 12 11 13 13 13 12 14 14 21 25 25 9 10 10 9 9 17 18 20 23 14 12 14 12
5 5 6 6 7 7 7 8 10 11 11 11 11 11 11 11 13 13 12 12 12 13 13 14 13 12 15 20 23 24 11 9 10 9 8 8 19 22 23 19 12 15 13
5 6 6 8 8 7 7 9 11 12 11 11 12 12 11 11 11 12 13 12 12 13 13 13 13 9 11 16 18 23 22 19 11 10 8 9 20 22 22 16 16 19 16
6 6 7 9 9 8 7 11 13 12 12 12 12 12 12 10 10 12 13 12 10 11 11 11 12 11 8 11 21 23 23 23 14 9 16 19 22 19 13 15 19 15 7
6 6 7 9 11 9 9 10 12 11 12 13 13 12 12 12 10 9 9 10 10 11 12 12 12 12 10 9 8 9 11 15 13 11 14 19 19 14 13 12 10 6 5
6 6 8 10 12 11 11 10 10 10 12 12 12 12 11 12 12 10 9 11 10 13 15 12 11 13 13 14 22 18 10 9 10 11 7 5 5 5 5 5 5 5 5
7 8 9 10 12 11 11 10 9 9 11 12 11 10 10 10 11 11 12 16 18 24 25 24 22 16 20 26 26 26 25 24 21 13 6 6 5 6 5 5 5 4 5
Wind_Direction
348 11 25 40 68 105 167 185 186 181 168 171 185 198 218 213 214 216 213 208 209 206 210 223 213 203 214 221 216 214 221 230 203 245 279 264 242 241 239 235 236 237 233
7 14 23 30 37 38 171 200 195 184 184 187 177 184 190 209 214 216 219 215 215 213 215 221 223 214 220 224 217 206 210 219 182 187 239 298 298 247 238 234 234 237 231
8 7 15 21 23 18 344 238 206 195 191 175 146 120 107 3 233 224 226 224 221 220 222 223 224 220 218 226 223 215 212 225 209 196 190 217 248 297 265 234 232 230 226
15 16 15 16 15 5 2 8 193 188 182 169 172 186 202 224 230 222 228 227 220 224 225 228 226 225 223 228 228 220 218 219 225 209 220 226 206 230 290 269 245 237 231
24 25 20 17 19 16 23 26 48 72 155 178 191 201 227 241 252 243 242 237 228 227 228 228 228 230 229 230 231 225 218 218 226 216 204 227 236 228 244 269 261 245 230
29 25 21 26 26 23 29 32 44 43 66 183 203 215 235 250 263 262 258 254 242 235 232 230 231 233 233 233 233 231 224 225 226 227 215 204 205 209 218 244 253 254 236
35 19 19 19 18 16 18 22 33 27 18 277 233 235 242 249 254 261 262 263 259 249 241 231 233 235 236 237 235 232 231 229 227 228 229 226 228 215 215 236 252 254 248
29 15 21 23 14 11 13 14 17 7 356 336 292 266 255 250 256 259 258 259 258 259 254 238 236 238 239 239 236 235 235 234 231 233 230 232 231 225 223 228 240 261 260
312 360 17 23 13 3 360 357 355 347 342 333 318 308 290 269 269 274 267 262 262 267 264 254 248 245 243 242 240 239 238 236 234 235 233 234 234 229 229 227 222 235 259
337 7 15 7 358 349 339 344 345 333 326 332 327 316 308 294 283 283 280 275 274 272 273 269 260 256 252 247 243 244 243 240 239 235 235 235 235 233 229 227 226 224 237
325 6 359 348 343 340 339 337 338 337 333 333 329 325 315 308 300 288 282 280 279 279 275 272 269 265 261 255 250 248 245 244 245 240 238 239 233 233 231 227 227 228 228
78 43 11 354 346 338 333 332 331 328 322 321 320 313 306 304 298 290 285 282 280 278 274 273 271 269 266 260 254 257 253 249 249 245 242 243 237 235 232 229 229 229 226
63 27 0 342 330 324 324 325 324 320 318 321 317 311 306 303 297 292 290 289 284 283 279 274 272 271 269 266 260 258 258 254 252 249 244 245 239 240 235 231 232 231 230
49 8 338 322 316 315 317 320 318 316 316 317 312 305 299 295 292 290 289 287 285 284 282 277 274 273 272 268 266 263 261 259 256 252 248 246 240 241 238 236 234 231 231
5 343 325 314 314 318 317 315 311 311 313 313 307 298 294 292 291 290 289 288 285 283 281 281 280 276 274 271 269 264 261 260 260 256 250 247 246 245 244 240 235 228 231
327 321 317 313 311 309 306 306 305 306 309 304 298 296 297 296 294 292 291 290 288 285 283 281 282 282 280 286 288 286 272 262 259 259 255 251 256 257 257 253 246 232 228
306 307 305 300 300 298 296 297 296 301 303 297 295 296 296 294 292 291 292 291 291 288 287 283 282 282 283 290 293 291 287 274 267 262 261 260 255 258 250 255 258 253 244
305 304 302 301 299 294 295 292 295 298 297 295 293 292 292 292 293 293 292 291 289 289 288 288 285 284 286 293 295 295 290 280 272 265 261 261 260 253 253 246 247 249 252
290 286 288 288 293 296 295 300 300 299 297 294 292 292 293 295 297 297 296 294 294 293 289 288 287 287 290 294 296 296 286 278 273 268 263 263 260 264 267 259 249 249 248
303 300 301 299 299 297 301 302 299 300 297 294 293 294 294 294 296 296 296 295 292 292 294 291 287 286 287 291 295 296 285 280 278 271 263 270 272 271 270 261 253 251 244
308 308 307 302 296 299 304 298 297 294 292 294 295 296 294 292 293 293 293 294 295 294 293 292 290 285 284 292 295 296 291 278 280 278 273 265 277 279 277 270 255 253 248
307 307 304 300 298 298 297 295 294 294 296 297 297 298 296 294 298 296 296 295 295 297 296 295 294 286 283 289 292 294 294 294 288 284 278 273 281 281 277 274 264 261 257
293 293 292 294 296 293 288 290 294 300 302 301 300 300 299 295 292 294 298 300 297 295 297 297 297 296 289 288 295 297 298 298 294 281 284 287 289 290 286 281 277 269 252
289 290 295 296 297 296 289 283 292 299 301 302 303 302 302 302 297 293 293 295 297 296 296 296 298 300 297 292 288 284 289 292 291 286 285 288 289 285 277 277 279 267 243
285 285 286 287 289 292 291 290 292 298 300 301 301 302 300 300 301 296 291 294 285 288 296 297 297 299 299 297 302 303 297 291 282 288 276 269 271 265 261 259 256 250 248
281 284 283 283 288 291 293 293 292 293 297 303 304 303 302 300 300 301 300 294 295 300 301 300 299 296 296 302 306 307 306 307 305 302 288 280 274 269 264 259 253 245 243